Volver al catálogo

THORAD DELTA 1 DEB

ActivoSSO
NORAD 8144·DEBRIS·🇺🇸 United States

Lanzado Nov 15, 1974 desde Vandenberg Space Force Base

Loading…

Próximos Pases (próximas 24 horas)

TLE

ActualizadoSource: Space-Track

Época: Sep 13, 2026, 20:01 UTC

1 08144U 74089N   26256.83443969  .00000020  00000-0  39006-3 0  9995
2 08144 101.7724 208.1683 0151898  36.1472 350.8996 12.53941761370463

Sigue THORAD DELTA 1 DEB en tiempo real con AllMySat

Download on the App Store